CAPE
0 0 21 24 0 0 0 41 77 57 414 335 424 447 534 509 364 289 538 455 196 154 276 41 0 0 0 0 0 0 0 0 0 0 0 0 0 0 8 6 4 3 2 4
0 5 1 0 0 11 15 25 26 126 210 242 545 333 492 487 323 230 352 220 200 128 315 271 0 0 0 0 0 0 0 0 0 0 0 0 0 3 2 3 5 6 4 4
0 0 0 0 23 12 16 0 0 0 36 185 128 282 527 401 291 392 331 364 198 159 238 417 24 0 0 0 0 0 0 0 0 0 0 0 1 7 2 4 5 7 3 4
0 0 0 0 60 2 9 0 0 6 36 116 9 24 697 568 441 445 424 218 159 132 67 294 25 60 0 0 0 0 0 0 0 0 0 1 0 2 6 0 0 4 3 3
0 0 1 22 35 1 1 8 10 10 33 68 276 0 448 507 439 391 312 190 114 92 82 219 10 14 0 0 0 0 0 0 0 0 0 1 1 2 5 0 5 5 5 5
0 0 0 70 38 14 9 71 104 98 59 71 76 0 130 317 74 16 202 113 63 73 226 199 67 13 0 0 0 0 0 0 0 0 1 5 7 1 2 0 8 3 6 5
0 0 30 47 25 26 19 132 93 54 10 45 50 0 13 52 4 1 20 91 91 83 215 301 159 99 6 0 0 0 0 0 0 0 0 2 5 7 9 2 5 10 6 7
1 6 1 33 41 65 98 49 66 55 47 64 21 25 4 0 0 46 44 72 160 147 179 424 282 109 1 0 0 0 0 0 0 0 0 1 3 2 8 6 7 23 12 13
11 71 2 23 5 1 8 68 54 28 89 72 44 14 13 28 80 90 147 131 197 206 253 368 366 162 0 2 0 0 0 0 0 0 0 0 2 4 3 4 5 15 17 15
7 32 7 1 0 1 1 36 5 66 16 27 30 52 0 1 8 119 166 177 179 374 334 372 314 182 23 6 0 0 0 0 0 0 0 0 0 3 5 14 9 8 9 8
0 19 36 10 20 24 39 23 8 50 60 63 83 63 7 30 40 61 133 205 255 390 376 421 393 110 49 2 0 0 0 0 0 0 0 0 0 2 6 10 17 9 12 14
0 20 40 53 11 52 9 26 57 45 43 12 6 41 11 26 51 103 93 96 136 256 264 218 288 67 34 2 0 0 0 0 0 0 0 0 0 1 5 11 15 10 12 18
24 0 9 22 64 33 38 10 0 76 93 62 71 132 6 112 270 191 58 30 159 209 226 160 153 42 19 3 0 0 0 0 0 0 0 0 0 1 2 7 12 14 14 19
104 8 61 43 6 32 54 0 18 31 63 84 55 7 85 0 96 91 101 58 101 154 206 138 93 45 10 7 0 0 0 0 0 0 0 0 0 0 1 3 6 10 10 12
202 58 6 82 74 69 66 68 33 65 83 75 85 89 83 145 139 128 118 219 234 138 97 120 140 120 27 6 1 0 0 0 0 0 0 0 0 0 0 1 1 5 6 12
503 120 52 12 96 62 29 21 23 39 53 47 61 97 166 42 164 159 251 369 396 369 300 143 176 205 141 20 2 0 0 0 0 0 0 0 0 0 0 0 0 1 3 3
517 77 58 21 52 51 4 21 48 1 0 29 141 115 222 213 324 422 525 447 409 324 323 420 267 272 229 93 5 0 0 0 0 0 0 0 0 0 0 0 0 0 0 0
488 334 44 59 36 14 66 49 5 24 86 243 165 238 411 467 467 432 151 56 10 97 250 585 513 414 309 120 16 0 0 0 0 0 0 0 0 0 0 0 0 0 0 0
311 282 70 76 60 34 70 65 0 55 65 333 343 431 542 538 414 178 0 1 1 80 407 558 480 351 236 102 12 4 0 0 0 0 0 0 0 0 0 0 0 0 0 11
399 561 286 120 66 106 316 282 335 154 90 456 407 489 527 381 239 12 0 5 186 364 350 292 253 215 213 129 32 16 0 0 0 0 0 0 0 0 0 0 0 0 18 31
301 135 50 101 74 54 384 425 227 81 568 374 323 409 363 266 318 46 217 305 213 192 154 125 100 138 209 90 27 0 0 0 0 0 0 0 0 0 0 0 51 94 119 118
154 202 142 93 44 98 472 222 209 887 704 601 541 569 574 565 110 131 293 318 179 68 0 0 4 76 69 30 0 0 0 0 0 0 0 0 0 2 13 56 111 133 176 208
233 235 894 521 942 398 90 947 1182 922 994 837 985 845 636 474 230 123 234 336 241 12 0 0 6 75 18 0 0 0 2 0 0 0 6 34 93 202 340 409 448 446 408 400
429 824 277 475 611 781 622 685 788 818 1133 1153 826 597 504 364 207 272 193 325 273 90 7 0 0 13 15 4 0 13 64 108 239 263 339 453 537 549 538 423 497 512 504 398
114 450 269 524 717 542 577 1116 1205 1202 1047 646 561 383 252 206 201 165 196 339 374 193 122 21 8 28 5 98 336 426 455 390 412 585 636 627 475 300 467 560 665 667 595 440
61 239 314 1051 1253 1358 1312 963 898 886 545 229 78 31 30 90 154 283 405 430 459 348 320 378 297 463 337 365 532 489 466 545 578 623 530 478 459 572 562 499 394 372 161 100
CIN
-0 -5 -27 -8 -0 -0 -0 -5 -2 -13 -13 -13 -2 -1 -42 -84 -70 -38 -3 -3 -6 -4 -3 -22 -0 -0 -0 -0 -0 -0 -0 -0 -0 -0 -0 -0 -0 -0 -3 -1 -0 -1 -0 -0
-0 -8 -2 -0 -0 -2 -2 -20 -47 -19 -20 -18 -2 -4 -23 -64 -80 -55 -16 -10 -2 -5 -3 -1 -0 -0 -0 -0 -0 -0 -0 -0 -0 -0 -0 -0 -0 -0 -1 -1 -0 -0 -1 -0
-0 -0 -0 -0 -3 -3 -1 -0 -0 -0 -39 -41 -24 -5 -37 -68 -68 -47 -29 -6 -3 -4 -5 -2 -13 -0 -0 -0 -0 -0 -0 -0 -0 -0 -0 -0 -0 -6 -1 -1 -1 -1 -0 -0
-0 -0 -0 -0 -4 -5 -2 -0 -0 -53 -37 -3 -44 -0 -3 -44 -48 -42 -10 -8 -9 -16 -44 -6 -13 -14 -0 -0 -0 -0 -0 -0 -0 -0 -0 -0 -0 -0 -1 -0 -0 -1 -0 -0
-0 -0 -3 -7 -12 -10 -2 -46 -25 -24 -14 -20 -7 -0 -22 -27 -4 -14 -24 -9 -6 -8 -41 -20 -2 -47 -0 -0 -0 -0 -0 -0 -0 -0 -0 -0 -1 -1 -1 -0 -0 -0 -2 -0
-0 -0 -0 -10 -24 -14 -16 -25 -8 -10 -57 -74 -10 -0 -8 -4 -13 -4 -5 -25 -34 -22 -9 -11 -48 -82 -0 -0 -0 -0 -0 -0 -0 -0 -0 -0 -1 -1 -1 -0 -2 -1 -1 -1
-0 -0 -50 -29 -6 -20 -16 -3 -10 -11 -89 -9 -43 -0 -1 -29 -25 -8 -9 -15 -34 -39 -14 -18 -31 -45 -102 -0 -0 -0 -0 -0 -0 -0 -0 -0 -1 -1 -1 -1 -1 -2 -2 -1
-7 -11 -4 -25 -3 -5 -3 -5 -8 -6 -7 -7 -79 -5 -0 -0 -0 -75 -68 -26 -16 -26 -9 -6 -25 -54 -12 -0 -0 -0 -0 -0 -0 -0 -0 -0 -0 -0 -2 -1 -1 -1 -1 -1
-33 -6 -3 -22 -17 -3 -5 -6 -11 -23 -8 -8 -14 -9 -17 -68 -56 -68 -66 -59 -18 -7 -7 -3 -3 -32 -0 -75 -0 -0 -0 -0 -0 -0 -0 -0 -1 -1 -0 -0 -2 -1 -0 -1
-13 -5 -7 -6 -0 -7 -3 -15 -9 -12 -6 -5 -7 -21 -0 -15 -17 -16 -37 -46 -25 -7 -10 -5 -4 -34 -116 -158 -0 -0 -0 -0 -0 -0 -0 -0 -0 -1 -0 -1 -3 -3 -2 -1
-0 -6 -2 -21 -9 -6 -15 -39 -53 -6 -6 -6 -5 -4 -11 -12 -47 -26 -18 -11 -11 -5 -4 -4 -2 -56 -104 -80 -0 -0 -0 -0 -0 -0 -0 -0 -0 -0 -1 -0 -0 -4 -2 -3
-0 -3 -3 -4 -26 -9 -16 -7 -4 -2 -4 -14 -12 -8 -89 -10 -11 -53 -34 -22 -13 -6 -6 -4 -5 -72 -104 -66 -0 -0 -0 -0 -0 -0 -0 -0 -0 -1 -0 -1 -0 -1 -4 -1
-5 -0 -3 -10 -6 -24 -37 -47 -0 -2 -8 -8 -8 -6 -1 -19 -4 -30 -44 -29 -40 -53 -24 -14 -14 -67 -98 -113 -0 -0 -0 -0 -0 -0 -0 -0 -0 -1 -1 -1 -1 -1 -0 -2
-42 -22 -2 -6 -22 -21 -28 -0 -24 -10 -5 -6 -9 -36 -6 -0 -24 -22 -47 -56 -42 -36 -43 -34 -15 -36 -93 -115 -42 -0 -0 -0 -0 -0 -0 -0 -0 -0 -0 -1 -1 -1 -1 -1
-21 -17 -13 -2 -5 -4 -7 -4 -6 -5 -4 -7 -6 -7 -6 -5 -3 -6 -29 -35 -36 -28 -33 -35 -13 -16 -52 -123 -57 -0 -0 -0 -0 -0 -0 -0 -0 -0 -0 -1 -1 -1 -0 -1
-23 -7 -5 -8 -3 -2 -5 -4 -2 -4 -5 -2 -3 -4 -48 -35 -4 -5 -10 -3 -3 -4 -2 -20 -6 -27 -47 -83 -37 -0 -0 -0 -0 -0 -0 -0 -0 -0 -0 -0 -0 -0 -0 -0
-15 -5 -5 -5 -23 -14 -18 -6 -10 -5 -0 -3 -4 -9 -2 -3 -2 -3 -1 -3 -5 -5 -4 -3 -2 -16 -63 -78 -65 -0 -0 -0 -0 -0 -0 -0 -0 -0 -0 -0 -0 -0 -0 -0
-13 -5 -4 -4 -4 -7 -18 -6 -17 -23 -13 -6 -4 -4 -4 -5 -15 -7 -43 -51 -70 -65 -37 -6 -2 -35 -67 -106 -120 -0 -0 -0 -0 -0 -0 -0 -0 -0 -0 -0 -0 -0 -0 -0
-20 -6 -4 -9 -6 -7 -6 -92 -0 -10 -15 -9 -9 -4 -4 -1 -11 -97 -0 -12 -70 -105 -88 -47 -47 -56 -88 -114 -134 -143 -0 -0 -0 -0 -0 -0 -0 -0 -0 -0 -0 -0 -0 -55
-11 -21 -3 -5 -8 -7 -5 -9 -0 -28 -13 -12 -11 -10 -1 -2 -15 -78 -0 -32 -105 -115 -112 -101 -84 -106 -109 -105 -138 -150 -0 -0 -0 -0 -0 -0 -0 -0 -0 -0 -0 -1 -72 -67
-6 -13 -3 -9 -8 -8 -5 -23 -18 -22 -16 -14 -22 -23 -8 -8 -32 -92 -78 -77 -92 -108 -128 -130 -123 -114 -109 -127 -140 -0 -0 -0 -0 -0 -0 -0 -0 -0 -0 -0 -93 -87 -75 -71
-2 -7 -5 -5 -8 -2 -13 -0 -18 -23 -27 -28 -22 -16 -11 -12 -63 -53 -49 -60 -85 -114 -0 -0 -100 -114 -121 -185 -0 -0 -0 -0 -0 -0 -0 -0 -0 -44 -77 -68 -77 -81 -62 -43
-6 -3 -5 -2 -5 -84 -62 -28 -33 -41 -29 -21 -14 -18 -16 -16 -12 -34 -29 -41 -51 -129 -0 -0 -87 -114 -130 -0 -0 -0 -128 -0 -0 -0 -52 -41 -44 -39 -33 -23 -19 -20 -25 -8
-5 -14 -5 -3 -3 -8 -25 -34 -42 -40 -29 -21 -27 -25 -15 -20 -14 -1 -3 -23 -38 -45 -77 -0 -0 -87 -100 -124 -18 -106 -60 -18 -22 -15 -12 -10 -17 -28 -21 -19 -15 -2 -1 -4
-7 -32 -5 -5 -3 -11 -8 -27 -37 -35 -31 -26 -27 -35 -29 -28 -25 -18 -2 -6 -30 -39 -48 -68 -50 -75 -20 -16 -1 -1 -10 -43 -16 -2 -4 -6 -27 -49 -3 -3 -1 -2 -1 -2
-5 -2 -2 -4 -15 -5 -24 -41 -33 -32 -36 -44 -63 -55 -52 -34 -31 -31 -12 -10 -19 -15 -19 -33 -37 -5 -27 -13 -1 -38 -51 -41 -25 -17 -1 -3 -12 -1 -1 -2 -2 -2 -7 -15
Wind_Speed
15 15 15 9 16 15 11 8 11 19 17 11 13 11 12 13 12 12 11 11 11 11 13 12 12 14 17 19 23 26 27 26 24 24 25 23 22 21 21 23 23 25 26 29
17 13 17 17 14 11 11 9 24 13 15 11 12 12 11 11 10 9 9 10 10 11 12 12 11 12 14 17 20 24 26 25 24 23 23 21 20 19 19 22 22 25 26 27
18 16 13 13 12 12 18 10 7 7 11 11 11 12 11 10 10 10 11 11 9 10 10 11 10 11 12 14 18 21 23 23 24 22 22 22 19 16 22 21 24 23 25 27
21 16 15 13 13 13 17 22 13 10 8 9 8 9 8 9 7 7 8 9 8 9 11 12 11 11 11 13 16 18 20 21 23 22 22 21 21 22 20 21 24 20 23 25
14 21 13 14 16 15 21 6 8 9 8 7 14 12 14 12 10 6 7 8 8 9 10 11 12 11 11 13 14 16 18 20 21 20 21 20 22 21 21 22 20 20 21 23
19 18 21 18 13 3 14 8 7 4 18 7 20 26 20 18 20 13 7 9 10 9 11 11 13 13 12 12 13 15 16 18 19 19 19 20 21 21 21 23 19 20 21 22
10 7 10 8 11 12 7 18 5 12 22 16 20 18 20 22 19 16 11 8 9 9 9 10 10 11 11 11 12 13 15 16 18 18 18 20 20 18 19 21 23 17 20 22
6 9 11 6 7 21 9 24 24 22 30 28 31 17 19 21 21 16 11 8 7 8 7 8 9 10 9 10 11 13 14 14 15 17 18 19 20 21 17 24 20 17 18 21
19 10 8 8 15 21 11 20 24 24 27 17 15 24 16 17 19 18 12 8 6 6 6 6 7 9 9 10 11 12 13 14 14 15 16 17 18 20 20 19 17 17 17 17
24 13 8 7 10 9 13 25 22 12 22 28 26 27 21 22 24 20 14 9 6 7 5 5 6 8 8 9 10 12 13 13 12 12 14 15 17 18 19 18 17 16 16 16
6 14 15 19 6 3 10 14 22 12 22 29 32 29 18 20 21 21 16 11 8 7 5 5 5 7 7 8 9 11 13 13 13 12 12 13 15 17 18 19 18 17 15 15
7 15 9 11 22 21 22 6 17 25 27 33 29 28 14 15 17 18 17 14 10 8 8 7 6 6 6 7 8 11 12 13 13 13 11 11 13 15 16 17 17 16 13 14
8 11 16 9 6 22 26 30 26 13 21 15 21 23 19 26 19 15 17 17 13 11 9 8 6 5 5 5 7 9 12 12 14 13 11 10 11 12 14 15 16 16 14 14
15 14 16 32 26 16 14 4 3 22 20 29 9 34 27 17 5 18 18 17 15 10 9 8 6 4 5 5 6 8 11 13 14 14 12 13 13 12 13 15 15 14 14 13
13 15 12 12 5 14 11 5 29 21 19 19 22 25 18 25 18 19 17 16 17 15 11 9 6 6 3 5 6 7 10 12 14 14 13 14 14 13 13 14 14 14 13 12
13 16 18 17 8 7 11 14 16 17 18 22 21 23 30 23 16 19 18 18 19 18 14 11 7 3 4 4 6 7 10 12 13 13 12 13 14 13 13 14 14 12 12 12
8 11 13 6 17 6 25 20 21 24 24 24 21 27 26 23 20 20 21 23 24 24 21 13 10 6 6 6 6 8 10 12 14 13 13 12 13 13 13 14 14 14 13 12
10 9 11 13 18 18 17 16 19 22 19 20 24 21 22 20 21 21 26 26 25 27 24 18 10 9 7 8 8 9 11 13 14 13 13 13 13 12 13 13 14 15 15 14
12 11 12 14 14 19 16 17 19 25 22 19 21 20 18 19 18 20 25 24 26 26 23 18 14 12 10 9 10 11 14 15 14 13 13 13 12 13 14 15 15 16 17 16
13 14 15 17 20 20 17 15 16 20 21 19 19 21 21 21 19 18 18 22 22 23 21 19 17 15 13 13 13 14 15 13 13 12 11 12 12 14 16 17 17 18 18 16
10 10 12 12 14 13 15 11 19 23 18 16 20 19 19 20 21 16 18 20 21 21 21 19 17 17 15 15 16 17 17 15 13 13 14 13 14 15 16 18 20 22 18 16
23 22 20 18 17 9 19 23 20 19 18 19 19 19 20 18 17 15 16 17 18 18 18 18 17 16 15 16 17 18 18 16 15 14 14 14 14 14 13 16 20 20 21 19
19 20 24 23 22 18 14 11 16 16 18 19 18 21 20 18 16 15 15 15 15 15 16 16 16 16 16 16 16 19 19 18 20 14 13 15 15 13 18 19 18 19 18 16
14 17 21 24 18 18 17 16 17 16 17 17 17 19 21 22 21 17 14 13 14 13 14 15 15 17 16 17 15 17 19 21 21 17 18 16 15 16 19 19 19 17 17 20
24 19 22 22 22 19 17 19 18 16 14 15 17 19 21 23 23 23 18 13 13 12 13 14 15 17 17 19 19 22 22 25 25 23 21 20 21 22 21 21 19 22 23 26
28 21 22 21 19 16 15 15 14 15 16 17 19 22 25 25 26 26 22 18 14 13 13 14 17 20 22 21 23 26 27 27 25 25 24 26 25 25 25 26 28 27 27 25
Wind_Direction
148 184 198 219 288 279 240 171 115 46 54 167 176 169 98 123 121 123 113 99 112 103 86 91 86 65 58 52 42 33 28 29 32 29 30 35 40 41 40 36 36 34 30 25
185 176 327 283 245 175 129 133 6 75 69 152 136 188 96 115 113 116 107 117 108 99 88 91 93 86 71 55 44 35 31 30 31 33 35 41 46 48 47 38 39 33 33 30
211 263 234 230 172 164 46 12 310 261 84 146 221 181 125 94 101 127 141 128 120 95 99 96 103 97 78 60 47 40 38 38 34 37 35 37 48 52 36 38 31 36 35 32
213 289 220 185 179 236 8 12 63 96 185 154 102 271 92 93 93 95 121 133 122 107 95 96 94 102 88 67 53 48 44 42 37 36 37 40 38 35 39 36 30 40 37 35
168 252 183 191 322 252 314 132 92 89 156 128 66 295 38 65 52 90 120 137 114 121 107 106 91 98 93 74 63 51 46 44 41 41 37 38 31 35 35 34 38 39 40 38
239 282 242 296 7 183 33 162 7 192 261 59 5 357 19 27 16 35 84 119 100 111 102 91 80 87 87 76 68 54 48 43 43 44 40 35 33 32 32 30 39 37 38 38
159 146 14 78 31 53 137 249 333 27 19 30 10 26 1 6 21 27 45 106 116 115 102 90 90 78 75 75 64 55 49 43 42 43 41 35 33 38 36 32 28 41 36 35
162 342 354 47 148 332 46 315 329 312 323 337 342 12 12 15 23 33 48 71 111 123 110 92 86 64 71 69 59 48 45 44 45 41 39 36 31 29 38 25 36 41 38 34
273 351 78 359 324 306 15 349 332 339 307 356 21 360 34 25 27 24 34 60 82 94 75 87 83 69 65 60 53 44 39 37 42 41 39 37 32 29 27 33 40 39 39 37
286 321 349 24 352 352 348 330 344 6 351 343 341 343 319 8 11 17 25 34 44 37 55 78 65 66 64 56 46 39 36 35 38 41 39 35 30 29 27 30 33 36 38 38
303 316 319 314 15 45 353 348 333 271 348 340 334 342 14 2 8 13 21 25 28 30 43 59 65 68 66 53 47 36 32 31 34 34 34 31 29 24 23 24 26 31 34 37
290 312 197 200 322 317 328 338 333 329 335 328 331 331 0 5 5 17 19 21 23 26 24 31 46 57 50 50 42 33 27 25 26 28 28 28 25 21 20 21 23 30 36 35
311 311 310 221 342 327 323 296 273 358 349 347 344 349 355 347 335 25 17 11 12 10 16 19 36 47 43 42 30 25 23 25 21 22 22 24 22 19 19 19 21 25 31 31
311 307 310 290 300 339 341 210 219 338 343 330 270 316 339 1 17 10 7 10 11 17 12 12 16 21 13 18 19 17 16 17 17 18 17 14 14 16 15 15 19 24 29 31
323 325 321 322 283 333 352 329 310 333 343 337 338 336 345 339 344 4 12 10 4 4 5 1 4 358 21 18 14 12 12 13 11 12 13 10 10 17 16 15 18 23 28 31
329 334 327 327 341 352 342 342 336 342 349 344 344 343 347 340 351 8 5 3 359 359 356 357 356 20 12 17 12 14 9 8 8 9 10 11 10 15 15 15 18 21 24 25
346 351 353 7 347 340 325 338 339 339 343 345 345 338 344 351 1 3 1 354 352 351 352 350 354 7 10 12 15 6 7 7 3 4 7 11 10 11 11 14 16 15 15 17
339 341 342 339 334 337 348 341 348 346 354 353 347 351 352 359 357 0 355 354 357 352 356 358 17 23 23 16 18 15 11 7 4 4 4 6 8 11 12 11 11 9 10 9
321 325 327 335 333 332 333 347 340 338 345 355 353 355 356 358 1 2 358 356 360 358 4 19 24 26 31 33 31 21 6 3 5 6 7 9 12 11 6 3 2 1 360 360
311 313 315 322 323 330 348 20 354 356 347 2 12 3 355 352 355 11 15 9 17 17 21 25 29 33 38 34 26 16 12 17 15 16 16 16 14 5 359 355 355 352 351 349
316 307 299 307 312 320 329 7 346 344 358 7 8 10 9 4 0 18 23 22 24 27 30 33 34 33 34 31 24 14 13 15 21 18 13 10 5 1 355 350 346 343 344 340
303 303 307 311 309 294 331 322 341 353 356 359 5 6 3 8 11 20 21 22 25 27 30 32 32 30 29 28 22 22 18 23 21 18 10 4 3 360 357 347 341 339 337 332
309 304 303 311 320 332 340 340 359 358 353 357 1 359 1 3 7 11 13 19 24 25 23 25 23 22 21 24 22 14 14 14 3 16 8 356 353 353 346 343 337 334 332 323
315 320 304 305 314 323 337 342 344 350 354 360 4 2 360 356 356 359 5 8 9 17 17 18 15 12 11 12 17 12 10 5 0 358 352 348 341 338 340 339 339 334 330 332
314 329 316 309 305 317 326 337 342 352 4 4 2 0 0 356 354 354 356 360 1 7 10 11 9 7 5 6 8 5 4 360 353 354 353 351 349 343 341 341 340 340 339 339
303 307 304 315 321 323 333 349 0 6 7 17 1 350 349 352 349 349 353 359 2 4 5 6 6 2 357 3 1 356 356 358 357 353 355 353 350 349 350 349 346 346 344 341